ギブス彗星

388P/Gibbs (2019)

English version
Home page
Updated on December 28, 2022

---------------------------------------------------------------------

・ プロフィール

符号 388P/2019 R2
検出日 2019年9月5日
検出光度 18.7等
検出者 H. Sato (Tokyo, Japan)

・ 写真集

・ 軌道要素

Epoch 2019 July 16.0 TT = JDT 2458680.5                                         
T 2019 July 23.63496 TT                                 Rudenko                 
q   2.0050032            (2000.0)            P               Q                  
n   0.08193613     Peri.   42.42339     +0.21728451     -0.94518306             
a   5.2499167      Node    37.05864     +0.75131815     +0.00252581             
e   0.6180886      Incl.   23.85878     +0.62314403     +0.32653118             
P  12.0                                                                         
From 120 observations 2007 Oct. 12-2020 Apr. 19, mean residual 0".7.            

・ 光度変化

        m1 = 12.0 + 5 logΔ + 15.0 log r

---------------------------------------------------------------------

軌道要素はM.P.E.C. 2020-H235に掲載されたものです。
光度グラフはComet for Windowsで作成したものです。

---------------------------------------------------------------------

Copyright(C) Seiichi Yoshida (comet@aerith.net). All rights reserved.